N0RWU Weather Reports


Display with metric or nautical units.
time (UTC)temp
F
wind
direction
speed
MPH
gust
MPH
rain 1hr
in
rain 24hr
in
rain mn
in
humidity
%
barometer
mb
20260505223827 59 262 10.0 15.0 0.00 0.00 0.00 30 1001.2
20260505222828 60 264 10.0 12.0 0.00 0.00 0.00 31 1001.3
20260505221827 59 250 8.0 10.0 0.00 0.00 0.00 31 1001.3
20260505220827 58 234 10.0 13.0 0.00 0.00 0.00 31 1001.4
20260505215827 59 255 10.0 13.0 0.00 0.00 0.00 31 1001.3
20260505214827 59 243 9.0 10.0 0.00 0.00 0.00 31 1001.4
20260505213828 59 264 5.0 7.0 0.00 0.00 0.00 31 1001.7
20260505212827 60 255 8.0 10.0 0.00 0.00 0.00 31 1001.7
20260505211827 59 267 6.0 8.0 0.00 0.00 0.00 32 1001.7
20260505210827 59 253 11.0 13.0 0.00 0.00 0.00 31 1001.9
20260505205827 59 250 8.0 9.0 0.00 0.00 0.00 31 1001.7
20260505203827 59 249 11.0 12.0 0.00 0.00 0.00 31 1001.9
20260505202828 59 243 11.0 14.0 0.00 0.00 0.00 31 1002.0
20260505201827 60 271 5.0 10.0 0.00 0.00 0.00 32 1001.9
20260505200828 60 245 12.0 18.0 0.00 0.00 0.00 31 1001.9
20260505195827 60 257 6.0 7.0 0.00 0.00 0.00 31 1002.0
20260505192827 60 232 12.0 15.0 0.00 0.00 0.00 31 1002.2
20260505191827 61 259 8.0 11.0 0.00 0.00 0.00 32 1002.2
20260505190827 61 237 5.0 5.0 0.00 0.00 0.00 33 1002.0
20260505185826 60 246 9.0 10.0 0.00 0.00 0.00 31 1002.2
20260505184828 61 281 7.0 10.0 0.00 0.00 0.00 33 1002.2
20260505183826 60 225 7.0 10.0 0.00 0.00 0.00 32 1002.3
20260505182827 61 248 8.0 8.0 0.00 0.00 0.00 33 1002.3
20260505181827 61 273 6.0 8.0 0.00 0.00 0.00 34 1002.4
20260505180828 59 239 5.0 5.0 0.00 0.00 0.00 33 1002.5
20260505174826 59 238 7.0 10.0 0.00 0.00 0.00 35 1002.6
20260505173827 60 252 9.0 13.0 0.00 0.00 0.00 35 1002.8
20260505172826 60 263 7.0 8.0 0.00 0.00 0.00 35 1002.6
20260505171827 59 229 5.0 6.0 0.00 0.00 0.00 34 1002.9
20260505170827 60 271 5.0 6.0 0.00 0.00 0.00 35 1002.8
20260505165828 59 248 7.0 10.0 0.00 0.00 0.00 33 1002.8
20260505164827 60 266 3.0 4.0 0.00 0.00 0.00 32 1002.8
20260505163828 59 256 7.0 8.0 0.00 0.00 0.00 34 1002.8
20260505162827 60 258 7.0 8.0 0.00 0.00 0.00 34 1002.9
20260505161827 58 243 6.0 7.0 0.00 0.00 0.00 34 1002.7
20260505160827 57 257 6.0 7.0 0.00 0.00 0.00 37 1002.9
20260505152826 57 253 4.0 6.0 0.00 0.00 0.00 37 1003.1
20260505151828 57 237 7.0 10.0 0.00 0.00 0.00 36 1003.1
20260505150827 57 218 3.0 3.0 0.00 0.00 0.00 38 1003.0
20260505124827 52 356 1.0 2.0 0.00 0.00 0.00 46 1002.3
20260505123827 52 255 2.0 2.0 0.00 0.00 0.00 51 1002.3
20260505122828 50 259 0.0 1.0 0.00 0.00 0.00 57 1002.4
20260505121827 47 278 0.0 0.0 0.00 0.00 0.00 64 1002.5
20260505120827 44 65 0.0 0.0 0.00 0.00 0.00 68 1002.5
20260505114827 43 238 0.0 0.0 0.00 0.00 0.00 70 1002.4
20260505113827 42 209 0.0 0.0 0.00 0.00 0.00 70 1002.2
20260505112827 41 209 0.0 0.0 0.00 0.00 0.00 70 1001.7
20260505111827 42 239 0.0 0.0 0.00 0.00 0.00 70 1001.7
20260505110828 41 230 0.0 0.0 0.00 0.00 0.00 69 1001.4
20260505100827 44 239 0.0 0.0 0.00 0.00 0.00 66 1000.9
20260505095827 43 238 0.0 0.0 0.00 0.00 0.00 65 1000.8
20260505094827 44 243 0.0 0.0 0.00 0.00 0.00 64 1000.8
20260505093827 44 209 0.0 0.0 0.00 0.00 0.00 63 1000.6
20260505091827 45 209 0.0 0.0 0.00 0.00 0.00 58 1000.4
20260505085827 46 255 1.0 2.0 0.00 0.00 0.00 57 999.7
20260505084828 46 307 1.0 2.0 0.00 0.00 0.00 56 999.4
20260505083827 47 259 1.0 2.0 0.00 0.00 0.00 55 999.4
20260505082827 47 253 1.0 2.0 0.00 0.00 0.00 55 999.4
20260505081827 48 274 2.0 2.0 0.00 0.00 0.00 54 999.3
20260505080827 48 281 2.0 2.0 0.00 0.00 0.00 52 999.1
20260505075827 49 304 2.0 3.0 0.00 0.00 0.00 51 999.0
20260505074827 50 15 4.0 4.0 0.00 0.00 0.00 50 999.0
20260505073827 50 37 2.0 3.0 0.00 0.00 0.00 49 999.4
20260505072827 50 79 2.0 3.0 0.00 0.00 0.00 48 999.9
20260505071827 51 302 5.0 6.0 0.00 0.00 0.00 47 999.7
20260505070827 51 7 2.0 2.0 0.00 0.00 0.00 47 999.5
20260505065827 51 263 3.0 4.0 0.00 0.00 0.00 47 999.9
20260505063827 52 252 3.0 4.0 0.00 0.00 0.00 47 1000.2
20260505061827 52 340 3.0 4.0 0.00 0.00 0.00 48 999.2
20260505060828 52 110 2.0 4.0 0.00 0.00 0.00 47 999.8
20260505055827 52 250 6.0 10.0 0.00 0.00 0.00 47 999.4
20260505054827 53 250 5.0 6.0 0.00 0.00 0.00 47 999.0
20260505053827 52 272 8.0 10.0 0.00 0.00 0.00 48 999.3
20260505052827 52 12 7.0 9.0 0.00 0.00 0.00 49 999.4
20260505050827 53 264 6.0 8.0 0.00 0.00 0.00 48 998.5
20260505040828 54 227 10.0 15.0 0.00 0.00 0.00 47 998.9
20260505035827 54 267 8.0 12.0 0.00 0.00 0.00 48 998.5
20260505034827 54 302 11.0 13.0 0.00 0.00 0.00 50 997.8
20260505033827 54 295 10.0 14.0 0.00 0.00 0.00 57 998.0
20260505032827 55 257 6.0 9.0 0.00 0.00 0.00 55 997.7
20260505031826 56 314 11.0 16.0 0.00 0.00 0.00 47 997.7
20260505030827 57 261 12.0 16.0 0.00 0.00 0.00 43 997.4
20260505025827 58 258 9.0 12.0 0.00 0.00 0.00 43 998.1
20260505024826 58 247 13.0 18.0 0.00 0.00 0.00 42 998.1
20260505021827 58 240 8.0 12.0 0.00 0.00 0.00 43 997.5
20260505020827 58 256 12.0 15.0 0.00 0.00 0.00 43 997.5
20260505015827 59 247 6.0 8.0 0.00 0.00 0.00 43 997.2
20260505014828 59 262 8.0 10.0 0.00 0.00 0.00 44 996.7
20260505013827 59 289 8.0 9.0 0.00 0.00 0.00 41 996.4
20260505012827 60 272 4.0 5.0 0.00 0.00 0.00 40 996.4
20260505011828 61 265 11.0 14.0 0.00 0.00 0.00 37 996.2
20260505010827 61 132 6.0 10.0 0.00 0.00 0.00 39 996.1
20260505005827 62 113 11.0 16.0 0.00 0.00 0.00 39 996.0
20260505004827 63 266 7.0 13.0 0.00 0.00 0.00 38 995.7
20260505003827 64 249 8.0 14.0 0.00 0.00 0.00 35 995.3
20260505001827 66 234 9.0 12.0 0.00 0.00 0.00 33 995.0
20260505000828 66 271 9.0 13.0 0.00 0.00 0.00 32 994.9
20260504235827 68 270 8.0 12.0 0.00 0.00 0.00 31 994.8
20260504234827 70 274 17.0 21.0 0.00 0.00 0.00 29 994.6
20260504233827 71 282 5.0 9.0 0.00 0.00 0.00 29 994.3
20260504231827 74 249 13.0 15.0 0.00 0.00 0.00 29 994.2
20260504230827 74 228 12.0 17.0 0.00 0.00 0.00 29 994.0
20260504225828 73 259 14.0 21.0 0.00 0.00 0.00 29 993.8
20260504224827 74 262 7.0 10.0 0.00 0.00 0.00 28 993.6